Regional Weather Roundup
Issued by NWS Upton, NY

Current Version | Previous Version | Text Only | Print | Product List | Glossary On
Versions: 1 2 3 4 5 6 7 8 9 10 11 12 13 14 15 16 17 18 19 20 21 22 23 24 25 26 27 28 29 30 31 32 33 34 35 36 37 38 39 40 41 42 43 44 45 46 47
000
ASUS41 KOKX 010205
RWROKX

REGIONAL WEATHER ROUNDUP
NATIONAL WEATHER SERVICE NEW YORK NY
1000 PM EDT THU JUL 31 2014

NOTE: "FAIR" INDICATES FEW OR NO CLOUDS BELOW 12,000 FEET WITH NO
SIGNIFICANT WEATHER AND/OR OBSTRUCTIONS TO VISIBILITY.

NYZ071-072-176-178-NJZ106-104-010300-
NEW YORK CITY METRO AREA


CITY           SKY/WX    TMP DP  RH WIND       PRES   REMARKS
CENTRAL PARK   PTCLDY    75  64  68 CALM      30.16R
LAGUARDIA APRT MOCLDY    76  66  71 S5        30.13R
KENNEDY INTL   MOCLDY    75  67  76 S17       30.15R
NEWARK/LIBERTY MOCLDY    77  66  68 S8        30.13R
BRNX BOT. GARD   N/A     72  64  78 E2        30.15S
TETERBORO      CLEAR     77  65  66 S3        30.12R
$$

NYZ177-179-078>081-010300-
LONG ISLAND NEW YORK

CITY           SKY/WX    TMP DP  RH WIND       PRES   REMARKS
FARMINGDALE    PTCLDY    73  67  81 S13       30.15R
ISLIP          PTCLDY    74  67  78 S8        30.15R
SHIRLEY        PTCLDY    72  64  76 S8        30.17R
WESTHAMPTON    PTCLDY    72  63  73 S6        30.18R
MONTAUK POINT    N/A     71  64  78 S6        30.18S
$$

NYZ052-065-067-010300-
HUDSON VALLEY

CITY           SKY/WX    TMP DP  RH WIND       PRES   REMARKS
WHITE PLAINS   CLEAR     70  64  81 CALM      30.14R
NEWBURGH       PTCLDY    72  61  68 VRB5      30.15R
MONTGOMERY     CLEAR     65  60  84 CALM      30.13R
POUGHKEEPSIE   PTCLDY    68  64  87 CALM      30.12R
ALBANY         PTCLDY    68  64  87 CALM      30.12R
$$

NJZ001-105-106-008-010-013-015-019>022-104-010300-
NEW JERSEY

CITY           SKY/WX    TMP DP  RH WIND       PRES   REMARKS
NEWARK/LIBERTY MOCLDY    77  66  68 S8        30.13R
TETERBORO      CLEAR     77  65  66 S3        30.12R
CALDWELL       CLEAR     73  59  61 CALM      30.14R
MORRISTOWN     CLEAR     68  61  77 CALM      30.14R
SOMERVILLE     CLEAR     67  63  87 CALM      30.12R
LINDEN         MOCLDY    79  65  61 CALM      30.15R
SUSSEX         CLEAR     66  61  84 CALM      30.14R
ANDOVER          N/A     64  62  93 CALM      30.15R
TRENTON        PTCLDY    75  59  57 S5        30.13R
MILLVILLE      MOCLDY    72  68  87 CALM      30.14R
ATLANTIC CITY  MOCLDY    73  66  78 MISG      30.15R
WRIGHTSTOWN    MOCLDY    72  65  78 S6        30.13R
TOMS RIVER     MOCLDY    72  66  83 S5        30.16R
BELMAR         MOCLDY    73  63  68 SW7       30.15R
$$

PAZ047>061-062-071-010300-
EASTERN PENNSYLVANIA

CITY           SKY/WX    TMP DP  RH WIND       PRES   REMARKS
PHILADELPHIA   MOCLDY    76  66  71 S7        30.14R
ALLENTOWN      CLOUDY    70  61  73 CALM      30.13R
SCRANTON       CLOUDY    72  56  57 CALM      30.14R
$$

CTZ002-004>006-009-010-012-RIZ004-006-007-MAZ004-011-015-010300-
SOUTHERN NEW ENGLAND
 IN CT

CITY           SKY/WX    TMP DP  RH WIND       PRES   REMARKS
BRADLEY INTL   PTCLDY    73  58  59 S10       30.14R
HARTFORD       CLEAR     71  59  65 S8        30.15R
DANBURY        CLEAR     70  62  76 S8        30.16R
WTRBRY/OXFORD  CLEAR     68  61  77 S7        30.18R
BRIDGEPORT     CLEAR     74  68  81 SW7       30.15
MERIDEN        PTCLDY    70  61  73 S6        30.15R
NEW HAVEN      CLEAR     73  64  73 CALM      30.16R
CHESTER        FAIR      70  63  78 S5        30.18S
GROTON         CLEAR     69  65  86 S6        30.17R
WILLIMANTIC    PTCLDY    70  62  76 S6        30.17R

 IN RI

CITY           SKY/WX    TMP DP  RH WIND       PRES   REMARKS
PROVIDENCE     PTCLDY    68  62  81 S7        30.18R
BLOCK ISLAND   PTCLDY    70  63  78 SW10      30.18S
WESTERLY       CLEAR     71  64  78 S5        30.18R

 IN MA

CITY           SKY/WX    TMP DP  RH WIND       PRES   REMARKS
BOSTON         MOCLDY    71  59  65 S13       30.15R
WORCESTER      CLEAR     67  59  75 SW10      30.18R
WESTFIELD      PTCLDY    66  62  87 S5        30.14R
PROVINCETOWN   CLEAR     68  64  88 SW12      30.18R
NANTUCKET      PTCLDY    66  63  90 S6        30.19R
$$

ANZ330-335-338-340-345-350-353-355-010300-
COASTAL MARINE OBSERVATIONS


STATION/POSITION TIME  SKY/WX   TEMP    WIND        PRES    VSBY  WAVE
                                AIR SEA DIR/SP/G                  HT/PER
                 (UTC)          (F)     (DEG/KT/KT) (MB)    (MI)  (FT/S)
NY HARB ENTRANCE NOT AVBL
4S FIRE IS       NOT AVBL
23SW MTP         0200            72 71              1021.3          3/ 7
HUDSON CANYON    0200            74 75  190/ 12/ 14 1021.6          3/ 8
EXECUTION ROCKS  0200            74 70  210/  8/ 10   N/A
WESTERN LI SOUND 0200            74     210/  6/ 10   N/A           1
CENTRAL LI SOUND 0100            73 72  190/ 14/ 17   N/A           2/ 3
EASTERN LI SOUND 0100            71 69  210/  6/  8   N/A
ROBBINS REEF     0200            77     200/ 14/ 17   N/A
$$


>>>>>>>>>>>>>>>>>>>>>>>>>>>> KEY <<<<<<<<<<<<<<<<<<<<<<<<<<<
>                                                          <
>     SKY/WX - SKY CONDITION/PRESENT WEATHER               <
>     TMP    - TEMPERATURE IN FAHRENHEIT                   <
>     DP     - DEWPOINT IN FAHRENHEIT                      <
>     RH     - RELATIVE HUMIDITY IN PERCENT                <
>     WIND   - DIRECTION AND SPEED IN MPH                  <
>     PRES   - MEAN SEA LEVEL PRESSURE IN INCHES OF HG     <
>     WCI    - WIND CHILL INDEX                            <
>     VSB    - VISIBILITY IN MILES                         <
>     HX     - HEAT INDEX                                  <
>     TC     - TEMPERATURE IN CELSIUS                      <
>     VRB    - VARIABLE WIND DIRECTION                     <
>                                                          <
>>>>>>>>>>>>>>>>>>>>>>>>>>>> KEY <<<<<<<<<<<<<<<<<<<<<<<<<<<





USA.gov is the U.S. government's official web portal to all federal, state and local government web resources and services.